[[{"header":{"parameterUnit":"m.s-1","parameterCategory":1,"la1":30.2991,"la2":30.254,"lo1":-89.0895,"lo2":-89.0444,"dy":0.0017,"dx":0.0017,"nx":28,"ny":28,"refTime":"2024-12-11T03:00:00:Z","depth":0,"parameterNumber":2,"parameterNumberName":"U-component_of_WINDS"},"data":[0,0,0,0,0,0,0,0,0,0,0,0,0,0,0,0,0,0,0,0,0,0,0,0,0,0,0,0,0,0,0,0,0,0,0,0,0,0,0,0,0,0,0,0,0,0,0,0,0,0,0,0,0,0,0,0,0,0,3.6454,3.6456,0,3.664,3.6642,3.6644,3.6624,3.6621,3.6618,3.6615,3.6815,3.6823,3.6831,0,0,0,0,0,0,0,0,0,0,0,0,0,3.609,3.6097,3.6454,3.6456,3.6458,3.664,3.6642,3.6645,3.6625,3.6621,3.6617,3.6614,3.6813,3.6822,3.6832,0,0,0,0,0,0,0,0,0,0,0,0,0,3.626,3.6099,3.6453,3.647,3.6473,3.6639,3.6643,3.6646,3.6625,3.6621,3.6617,3.6612,3.681,3.6821,3.6833,3.6998,0,0,3.687,3.6876,0,0,0,0,0,0,0,0,3.625,3.6273,3.6465,3.6469,3.6473,3.6604,3.6588,3.6764,3.6627,3.6568,3.6615,3.661,3.6749,3.6766,3.6811,3.7007,3.7016,3.6871,3.6879,3.6884,3.6888,0,0,0,0,0,0,0,3.6239,3.6265,3.6528,3.6468,3.6473,3.6471,3.6491,3.6621,3.6682,3.6573,3.6572,3.6594,3.6751,3.68,3.6816,3.7019,3.6871,3.6882,3.6889,3.6894,3.7363,3.7368,0,0,0,0,0,0,3.6221,3.6255,3.6522,3.6533,3.6348,3.6482,3.6503,3.6567,3.668,3.6693,3.6597,3.6592,3.6781,3.6802,3.6823,3.7025,3.6884,3.6895,3.6902,3.7358,3.7364,3.737,0,0,0,0,0,0,3.6214,3.6245,3.6514,3.6394,3.6428,3.6492,3.6564,3.6573,3.6621,3.6698,3.671,3.6635,3.6778,3.6806,3.6955,3.7031,3.6901,3.6912,3.7352,3.736,3.7367,3.7429,0,0,0,0,0,0,3.6203,3.6243,3.6303,3.6396,3.6435,3.664,3.6569,3.658,3.6641,3.6636,3.6737,3.675,3.6777,3.6937,3.6967,3.7046,3.6921,3.7345,3.7355,3.7364,3.7421,3.7438,3.7453,0,0,0,0,0,3.619,3.6314,3.6306,3.6338,3.6511,3.6644,3.6667,3.6693,3.6647,3.6711,3.6761,3.6747,3.7018,3.6952,3.6986,3.707,3.734,3.7352,3.7364,3.7413,3.7435,3.7453,0,0,0,0,0,0,3.6232,3.6327,3.6319,3.6475,3.6552,3.664,3.6721,3.6714,3.6807,3.6799,3.683,3.6853,3.7004,3.7052,3.6976,3.7237,3.7174,3.7192,3.72,3.7221,3.7237,3.7223,3.6931,0,0,0,0,0,3.6258,3.6355,3.6435,3.6566,3.6604,3.6656,3.6715,3.6728,3.681,3.6843,3.6903,3.6986,3.709,3.7158,3.7258,3.7427,3.7451,3.7502,3.7518,3.7531,3.7548,3.7644,3.7669,3.7408,3.7408,3.7407,0,0,3.6316,3.638,3.644,3.6576,3.6636,3.674,3.6683,3.6794,3.6873,3.6861,3.7005,3.7053,3.7147,3.7307,3.7381,3.7352,3.7625,3.7546,3.7556,3.7566,3.7659,3.7684,3.7706,3.7416,3.7414,3.7413,0,0,3.6474,3.653,3.6647,3.6709,3.68,3.6835,3.6863,3.6953,3.6984,3.7128,3.7122,3.7218,3.7395,3.7463,3.7521,3.7708,3.77,3.774,3.7825,3.7919,3.794,3.7958,3.8027,3.8051,3.7756,3.7756,3.7756,0,3.6534,3.6686,3.6708,3.6821,3.6883,3.6874,3.6995,3.7055,3.7176,3.7221,3.7185,3.741,3.7472,3.765,3.7696,3.7742,3.7779,3.7729,3.7934,3.7953,3.7971,3.8037,3.8063,3.776,3.776,3.7759,3.7759,0,3.6758,3.6864,3.6948,3.7063,3.7134,3.725,3.7293,3.7364,3.7372,3.7411,3.756,3.7635,3.7751,3.7794,3.7804,3.7975,3.7954,3.7926,3.7864,3.8,3.8063,3.8088,3.7767,3.7765,3.7764,3.7763,0,0,3.6946,3.7072,3.7103,3.7156,3.7258,3.7342,3.746,3.7571,3.7632,3.7717,3.7819,3.797,3.7945,3.8011,3.8029,3.8111,3.8258,3.8074,3.8076,3.8107,3.8455,3.8476,3.8505,3.8252,3.8257,3.8261,3.8447,0,3.7115,3.732,3.7345,3.7528,3.7629,3.7624,3.7727,3.7803,3.7843,3.7937,3.7983,3.8091,3.8048,3.8089,3.8169,3.8222,3.8328,3.8209,3.8351,3.8356,3.8328,3.8537,3.856,3.8732,3.8472,3.8476,3.8479,0,3.734,3.7429,3.7622,3.7712,3.7755,3.7847,3.7952,3.8041,3.8129,3.8153,3.8227,3.8235,3.8361,3.8292,3.8468,3.8386,3.8446,3.8481,3.8489,3.8504,3.8426,3.856,3.8787,3.8814,3.8518,3.8514,3.8512,0,3.7461,3.7629,3.7767,3.7812,3.792,3.7986,3.8034,3.8117,3.8183,3.8277,3.8321,3.8428,3.8488,3.8573,3.8611,3.8557,3.8786,3.872,3.8813,3.8812,3.8862,3.8859,3.9103,3.8898,3.8897,3.8897,3.8896,0,3.7648,3.7767,3.7823,3.7908,3.8042,3.8071,3.8205,3.8252,3.8326,3.8423,3.8426,3.8517,3.8561,3.8661,3.8692,3.8835,3.8861,3.8887,3.8894,3.8887,3.8885,3.8928,3.8918,3.8904,3.8902,3.8901,3.89,0,3.7806,3.7847,3.7998,3.8088,3.8113,3.8209,3.8288,3.8373,3.8412,3.8535,3.8566,3.8629,3.8747,3.8793,3.8937,3.8958,3.9124,3.912,3.9093,3.9096,3.9186,3.9178,3.9469,3.951,3.9276,3.9278,3.928,0,3.7923,3.8014,3.8114,3.8178,3.8228,3.8331,3.8398,3.8432,3.8503,3.861,3.8683,3.88,3.8894,3.9083,3.9145,3.9256,3.9257,3.9351,3.9274,3.9265,3.9261,3.9256,3.9267,3.9366,3.9369,3.937,3.9372,0,3.8128,3.8145,3.824,3.8344,3.8423,3.8507,3.8589,3.8642,3.8689,3.8769,3.8888,3.8961,3.9108,3.9225,3.934,3.9394,3.9393,3.9396,3.9424,3.9419,3.94,3.9413,3.9134,3.9389,3.9388,3.9386,3.9385,3.9385,3.8271,3.8353,3.8436,3.8543,3.8608,3.8685,3.8769,3.8819,3.8918,3.9038,3.9053,3.9182,3.9271,3.9424,3.9483,3.9587,3.9562,3.9602,3.9612,3.9622,3.9629,3.9382,3.9608,3.9607,3.9607,3.9607,3.9606,0,3.8478,3.8531,3.8629,3.8743,3.8829,3.8816,3.8907,3.898,3.9092,3.9174,3.9267,3.9406,3.952,3.959,3.9706,3.9776,3.9778,3.9805,3.9802,3.9815,3.9643,3.9609,3.9802,3.9802,3.9801,3.9801,3.9801,3.9801,3.8596,3.8734,3.8761,3.8933,3.8987,3.9111,3.9164,3.9237,3.9302,3.9455,3.9549,3.9594,3.9672,3.9794,3.99,3.9918,3.9961,3.9991,4.0008,3.9846,3.9826,3.9807,3.9775,3.9999,4.0,4.017,4.0172,4.0173]},{"header":{"parameterUnit":"m.s-1","parameterCategory":1,"la1":30.2991,"la2":30.254,"lo1":-89.0895,"lo2":-89.0444,"dy":0.0017,"dx":0.0017,"nx":28,"ny":28,"refTime":"2024-12-11T03:00:00:Z","depth":0,"parameterNumber":3,"parameterNumberName":"V-component_of_WINDS"},"data":[0,0,0,0,0,0,0,0,0,0,0,0,0,0,0,0,0,0,0,0,0,0,0,0,0,0,0,0,0,0,0,0,0,0,0,0,0,0,0,0,0,0,0,0,0,0,0,0,0,0,0,0,0,0,0,0,0,0,0.2053,0.2054,0,0.2199,0.2201,0.2203,0.2139,0.2136,0.2132,0.2129,0.2291,0.2298,0.2306,0,0,0,0,0,0,0,0,0,0,0,0,0,0.1724,0.173,0.2053,0.2054,0.2056,0.2199,0.2201,0.2203,0.214,0.2135,0.2131,0.2127,0.2288,0.2297,0.2307,0,0,0,0,0,0,0,0,0,0,0,0,0,0.1869,0.1732,0.2052,0.2042,0.2042,0.2199,0.2201,0.2204,0.2141,0.2135,0.213,0.2125,0.2285,0.2296,0.2308,0.2487,0,0,0.2343,0.2348,0,0,0,0,0,0,0,0,0.1861,0.1881,0.2041,0.2043,0.2043,0.2145,0.2145,0.2299,0.2142,0.2104,0.2129,0.2122,0.2248,0.2262,0.2302,0.2495,0.2502,0.2344,0.2351,0.2356,0.2359,0,0,0,0,0,0,0,0.1851,0.1874,0.2111,0.2044,0.2045,0.2031,0.2046,0.2174,0.2205,0.2107,0.2102,0.212,0.2247,0.2291,0.2305,0.2504,0.2344,0.2354,0.2361,0.2366,0.2846,0.2852,0,0,0,0,0,0,0.1839,0.1866,0.2106,0.2115,0.1936,0.2042,0.2058,0.2118,0.2203,0.221,0.2124,0.2116,0.2274,0.2292,0.231,0.2522,0.2356,0.2367,0.2373,0.284,0.2847,0.2854,0,0,0,0,0,0,0.1833,0.1861,0.21,0.199,0.2019,0.2053,0.2121,0.2124,0.2167,0.2216,0.2222,0.2163,0.227,0.2294,0.2441,0.2527,0.2372,0.2382,0.2833,0.2843,0.2851,0.295,0,0,0,0,0,0,0.1823,0.1859,0.1927,0.1991,0.2025,0.2228,0.2127,0.2131,0.2186,0.2177,0.2254,0.2261,0.2268,0.2425,0.2453,0.254,0.2391,0.2826,0.2837,0.2848,0.2939,0.2961,0.298,0,0,0,0,0,0.1812,0.1953,0.1931,0.196,0.211,0.2233,0.2252,0.2253,0.2193,0.2262,0.2292,0.2259,0.2513,0.244,0.2472,0.2564,0.2821,0.2834,0.2847,0.293,0.2957,0.2979,0,0,0,0,0,0,0.1904,0.1962,0.1938,0.2103,0.2163,0.2222,0.2309,0.2282,0.2364,0.2352,0.2353,0.2371,0.2522,0.2558,0.2476,0.2739,0.2658,0.2678,0.271,0.2736,0.2756,0.2745,0.2401,0,0,0,0,0,0.1942,0.2034,0.2081,0.2223,0.2253,0.2276,0.233,0.2324,0.2388,0.2414,0.2455,0.2521,0.2615,0.2677,0.2767,0.2943,0.2958,0.3022,0.3042,0.3058,0.3076,0.3168,0.3196,0.2897,0.2897,0.2897,0,0,0.2025,0.2068,0.2127,0.2242,0.2288,0.2384,0.2298,0.2406,0.2477,0.2432,0.2571,0.2603,0.2677,0.2838,0.2911,0.2872,0.3161,0.3075,0.3088,0.3097,0.3184,0.3212,0.3237,0.2906,0.2904,0.2903,0,0,0.2224,0.2266,0.2386,0.2431,0.2499,0.2512,0.254,0.2602,0.262,0.2759,0.2724,0.2811,0.2974,0.3026,0.3074,0.3284,0.3257,0.3314,0.3421,0.351,0.3533,0.3554,0.3627,0.3654,0.3331,0.3332,0.3332,0,0.232,0.2461,0.2453,0.256,0.2611,0.2567,0.2689,0.2735,0.283,0.2867,0.282,0.3019,0.3066,0.3236,0.3286,0.3327,0.336,0.3306,0.353,0.3551,0.357,0.364,0.3668,0.3338,0.3337,0.3337,0.3336,0,0.2573,0.2671,0.2761,0.2847,0.2907,0.3022,0.3032,0.3095,0.3082,0.31,0.324,0.3293,0.339,0.343,0.3423,0.3599,0.3572,0.3528,0.3447,0.3605,0.367,0.3697,0.3347,0.3345,0.3343,0.3341,0,0,0.284,0.2913,0.2946,0.2982,0.305,0.3128,0.3239,0.3328,0.3381,0.3447,0.354,0.3675,0.3632,0.3687,0.3683,0.3762,0.3921,0.3708,0.371,0.3744,0.4116,0.4148,0.4179,0.3902,0.3907,0.3911,0.4109,0,0.3042,0.3233,0.3225,0.3404,0.3493,0.345,0.3546,0.3599,0.3618,0.3697,0.3719,0.3813,0.3751,0.3783,0.3858,0.3886,0.3996,0.3872,0.399,0.3994,0.3972,0.4213,0.4249,0.4433,0.4135,0.4139,0.4142,0,0.3305,0.3372,0.3558,0.3607,0.3644,0.3731,0.3809,0.3886,0.3944,0.3952,0.4008,0.399,0.4104,0.4017,0.4173,0.4088,0.4136,0.4156,0.4163,0.4175,0.4078,0.4231,0.4493,0.452,0.4183,0.418,0.4177,0,0.3477,0.3615,0.3743,0.3775,0.3837,0.3898,0.3927,0.3979,0.4031,0.4101,0.4134,0.4218,0.4265,0.433,0.4335,0.4272,0.4492,0.4407,0.4502,0.4502,0.4551,0.4548,0.4824,0.4583,0.4582,0.4582,0.4581,0,0.3704,0.382,0.382,0.3899,0.4025,0.4015,0.4142,0.4166,0.4211,0.4294,0.4263,0.4343,0.4345,0.4426,0.4431,0.4558,0.458,0.4589,0.459,0.4592,0.4591,0.4624,0.4611,0.4589,0.4587,0.4586,0.4585,0,0.392,0.3924,0.406,0.4103,0.4117,0.4209,0.4247,0.4322,0.4334,0.4439,0.4464,0.4485,0.4578,0.4589,0.47,0.4703,0.4855,0.4842,0.4834,0.4832,0.4925,0.4916,0.5232,0.5272,0.5005,0.5008,0.501,0,0.4064,0.415,0.4201,0.4251,0.4281,0.4365,0.4416,0.4408,0.4463,0.4532,0.4599,0.4687,0.4758,0.4909,0.4936,0.502,0.5008,0.5113,0.5021,0.5019,0.5008,0.5002,0.501,0.5131,0.5134,0.5137,0.5139,0,0.4319,0.4315,0.4387,0.446,0.4519,0.4578,0.4632,0.4676,0.4675,0.4738,0.483,0.4884,0.4992,0.5081,0.5162,0.5194,0.5167,0.5166,0.5192,0.5197,0.5187,0.5191,0.4882,0.516,0.5158,0.5156,0.5155,0.5154,0.4502,0.4575,0.4619,0.47,0.4738,0.4788,0.4858,0.4876,0.4951,0.5035,0.5027,0.5128,0.518,0.5284,0.5322,0.5402,0.5367,0.5406,0.5416,0.5425,0.5434,0.5173,0.5417,0.5416,0.5416,0.5415,0.5415,0,0.4754,0.4778,0.4852,0.4925,0.4988,0.495,0.5006,0.5063,0.515,0.5199,0.5266,0.537,0.5454,0.5484,0.5566,0.5624,0.5614,0.5646,0.5642,0.565,0.5461,0.5429,0.5653,0.5653,0.5653,0.5653,0.5653,0.5653,0.4892,0.5011,0.5012,0.5149,0.5174,0.5268,0.5303,0.5349,0.5386,0.5501,0.5569,0.5586,0.5627,0.5711,0.5786,0.5793,0.5824,0.5862,0.5864,0.5687,0.5663,0.5641,0.5611,0.5869,0.587,0.6046,0.6047,0.6049]}]]